Regional Weather Roundup
Issued by NWS Charleston, WV

Home | Current Version | Previous Version | Graphics & Text | Print | Product List | Glossary On
Versions: 1 2 3 4 5 6 7 8 9 10 11 12 13 14 15 16 17 18 19 20 21 22 23 24 25 26 27 28 29 30 31 32 33 34 35 36 37 38 39 40 41 42 43 44 45 46 47 48 49 50
000
ASUS41 KRLX 040510
RWRRLX
West Virginia Regional Weather Roundup
National Weather Service Charleston WV
1200 AM EST WED MAR 04 2015

Note: "fair" indicates few or no clouds below 12,000 feet with no
significant weather and/or obstructions to visibility.

WVZ003-040600-
Northern Panhandle of West Virginia

CITY           SKY/WX    TMP DP  RH WIND       PRES   REMARKS
WHEELING       LGT RAIN  45  42  89 W9        29.77S
$$

WVZ009-040600-
Northwest West Virginia

CITY           SKY/WX    TMP DP  RH WIND       PRES   REMARKS
PARKERSBURG    LGT RAIN  49  47  93 W10       29.84S
$$

WVZ006-040600-
Western West Virginia

CITY           SKY/WX    TMP DP  RH WIND       PRES   REMARKS
HUNTINGTON     LGT RAIN  54  53  97 NW9G17    29.83S
$$

WVZ015-040600-
West Central West Virginia

CITY           SKY/WX    TMP DP  RH WIND       PRES   REMARKS
CHARLESTON     LGT RAIN  58  55  90 SW8       29.81F
$$

WVZ022-031-040600-
North Central West Virginia

CITY           SKY/WX    TMP DP  RH WIND       PRES   REMARKS
CLARKSBURG     LGT RAIN  52  51  97 W10       29.80R FOG
MORGANTOWN     RAIN      52  48  86 SW7       29.79S FOG
$$

WVZ025-035-042-045-040600-
Southern West Virginia

CITY           SKY/WX    TMP DP  RH WIND       PRES   REMARKS
BECKLEY        HVY RAIN  50  48  93 SW14      29.89F FOG
LOGAN          LGT RAIN  54  54 100 S6        29.83F VSB 1/4
BLUEFIELD      CLOUDY    55  50  83 W10       29.92F
LEWISBURG      MIX PCPN  35  34  94 N3        29.91F
$$

WVZ047-040600-
Northern Mountains of West Virginia

CITY           SKY/WX    TMP DP  RH WIND       PRES   REMARKS
ELKINS         LGT RAIN  57  52  83 SW17G29   29.80F
$$

WVZ052-040600-
Eastern Panhandle of West Virginia

CITY           SKY/WX    TMP DP  RH WIND       PRES   REMARKS
MARTINSBURG    CLOUDY    39  30  70 SE5       29.80F
PETERSBURG     CLOUDY    54  43  66 S22G30    29.73F
$$


USA.gov is the U.S. government's official web portal to all federal, state and local government web resources and services.